timestamp,wind_dir_avg,wind_spd_avg,wind_spd_max_dir,wind_spd_gust,battery_voltage,lat,long
2021-10-02 00:04:01+00:00,346.0,2.72,346.0,2.84,12.65,47.59359,-54.27349
2021-10-02 00:14:01+00:00,14.0,2.42,14.0,3.06,12.57,47.59359,-54.27349
2021-10-02 00:24:01+00:00,37.0,3.61,41.0,3.81,12.57,47.59359,-54.27349
2021-10-02 00:34:01+00:00,39.0,3.3,38.0,3.44,12.57,47.59359,-54.27349
2021-10-02 00:44:01+00:00,39.0,3.12,36.0,3.41,12.57,47.59359,-54.27349
2021-10-02 00:54:01+00:00,21.0,2.59,21.0,2.87,12.57,47.59359,-54.27349
2021-10-02 01:04:01+00:00,18.0,3.15,18.0,3.42,12.57,47.59359,-54.27349
2021-10-02 01:14:01+00:00,32.0,3.56,32.0,3.79,12.57,47.59359,-54.27349
2021-10-02 01:24:01+00:00,30.0,3.67,31.0,3.87,12.57,47.59359,-54.27349
2021-10-02 01:34:01+00:00,30.0,3.79,29.0,4.3,12.57,47.59359,-54.27349
2021-10-02 01:44:01+00:00,22.0,3.07,21.0,3.3,12.57,47.59359,-54.27349
2021-10-02 01:54:01+00:00,12.0,3.84,17.0,4.8,12.57,47.59359,-54.27349
2021-10-02 02:04:01+00:00,30.0,4.83,29.0,5.73,12.57,47.59359,-54.27349
2021-10-02 02:14:01+00:00,33.0,4.86,34.0,5.47,12.57,47.59359,-54.27349
2021-10-02 02:24:01+00:00,29.0,3.0,30.0,3.37,12.57,47.59359,-54.27349
2021-10-02 02:34:01+00:00,27.0,3.0,34.0,3.44,12.57,47.59359,-54.27349
2021-10-02 02:44:01+00:00,24.0,2.92,22.0,3.13,12.57,47.59359,-54.27349
2021-10-02 02:54:01+00:00,48.0,2.71,45.0,3.05,12.57,47.59359,-54.27349
2021-10-02 03:04:01+00:00,37.0,2.0,41.0,2.37,12.57,47.59359,-54.27349
2021-10-02 03:14:01+00:00,14.0,1.18,12.0,1.53,12.57,47.59359,-54.27349
2021-10-02 03:24:01+00:00,15.0,0.14,15.0,0.27,12.57,47.59359,-54.27349
2021-10-02 03:34:01+00:00,108.0,0.74,106.0,0.87,12.57,47.59359,-54.27349
2021-10-02 03:44:01+00:00,189.0,0.06,198.0,0.13,12.57,47.59359,-54.27349
2021-10-02 03:54:01+00:00,211.0,0.73,213.0,0.83,12.57,47.59359,-54.27349
2021-10-02 04:04:01+00:00,177.0,0.58,190.0,0.66,12.57,47.59359,-54.27349
2021-10-02 04:14:01+00:00,138.0,1.12,132.0,1.24,12.57,47.59359,-54.27349
2021-10-02 04:24:01+00:00,122.0,2.08,132.0,2.5,12.57,47.59359,-54.27349
2021-10-02 04:34:01+00:00,119.0,1.94,131.0,2.43,12.57,47.59359,-54.27349
2021-10-02 04:44:01+00:00,152.0,2.24,151.0,2.65,12.57,47.59359,-54.27349
2021-10-02 04:54:01+00:00,163.0,2.36,163.0,2.55,12.57,47.59359,-54.27349
2021-10-02 05:04:01+00:00,163.0,2.78,160.0,2.97,12.57,47.59359,-54.27349
2021-10-02 05:14:01+00:00,168.0,2.31,172.0,2.49,12.49,47.59359,-54.27349
2021-10-02 05:24:01+00:00,174.0,2.8,174.0,2.92,12.49,47.59359,-54.27349
2021-10-02 05:34:01+00:00,177.0,2.41,177.0,2.61,12.49,47.59359,-54.27349
2021-10-02 05:44:01+00:00,173.0,2.06,176.0,2.23,12.49,47.59359,-54.27349
2021-10-02 05:54:01+00:00,192.0,2.23,192.0,2.44,12.49,47.59359,-54.27349
2021-10-02 06:04:01+00:00,224.0,1.9,221.0,2.17,12.49,47.59359,-54.27349
2021-10-02 06:14:01+00:00,212.0,2.61,209.0,2.93,12.49,47.59359,-54.27349
2021-10-02 06:24:01+00:00,230.0,3.8,229.0,4.3,12.49,47.59359,-54.27349
2021-10-02 06:34:01+00:00,257.0,2.82,254.0,3.36,12.49,47.59359,-54.27349
2021-10-02 06:44:01+00:00,266.0,2.82,268.0,3.63,12.49,47.59359,-54.27349
2021-10-02 06:54:01+00:00,276.0,2.93,273.0,4.65,12.49,47.59359,-54.27349
2021-10-02 07:04:01+00:00,286.0,6.09,289.0,6.52,12.49,47.59359,-54.27349
2021-10-02 07:14:01+00:00,287.0,5.42,288.0,5.91,12.41,47.59359,-54.27349
2021-10-02 07:24:01+00:00,284.0,6.06,286.0,6.71,12.41,47.59359,-54.27349
2021-10-02 07:34:01+00:00,277.0,5.44,283.0,5.98,12.41,47.59359,-54.27349
2021-10-02 07:44:01+00:00,268.0,3.76,268.0,4.1,12.41,47.59359,-54.27349
2021-10-02 07:54:01+00:00,250.0,3.64,254.0,4.14,12.41,47.59359,-54.27349
2021-10-02 08:04:01+00:00,268.0,6.08,268.0,6.99,12.41,47.59359,-54.27349
2021-10-02 08:14:00+00:00,273.0,4.32,278.0,5.03,12.41,47.59359,-54.27349
2021-10-02 08:24:00+00:00,277.0,4.99,277.0,5.58,12.41,47.59359,-54.27349
2021-10-02 08:34:00+00:00,277.0,5.38,275.0,5.98,12.41,47.59359,-54.27349
2021-10-02 08:44:00+00:00,291.0,4.25,295.0,4.73,12.41,47.59359,-54.27349
2021-10-02 08:54:00+00:00,286.0,4.25,285.0,4.7,12.41,47.59359,-54.27349
2021-10-02 09:04:00+00:00,294.0,3.53,299.0,3.87,12.41,47.59359,-54.27349
2021-10-02 09:14:01+00:00,289.0,3.49,292.0,3.68,12.41,47.59359,-54.27349
2021-10-02 09:24:01+00:00,275.0,2.88,270.0,3.46,12.41,47.59359,-54.27349
2021-10-02 09:34:01+00:00,267.0,3.4,268.0,3.81,12.41,47.59359,-54.27349
2021-10-02 09:44:01+00:00,272.0,3.18,276.0,3.68,12.41,47.59359,-54.27349
2021-10-02 09:54:01+00:00,285.0,2.75,282.0,2.97,12.41,47.59359,-54.27349
2021-10-02 10:04:01+00:00,274.0,2.47,270.0,3.17,12.41,47.59359,-54.27349
2021-10-02 10:14:00+00:00,248.0,2.43,252.0,2.84,12.41,47.59359,-54.27349
2021-10-02 10:24:00+00:00,241.0,3.54,236.0,3.82,12.41,47.59359,-54.27349
2021-10-02 10:34:00+00:00,239.0,4.51,239.0,4.81,12.41,47.59359,-54.27349
2021-10-02 10:44:00+00:00,249.0,4.16,253.0,4.47,12.41,47.59359,-54.27349
2021-10-02 10:54:00+00:00,261.0,4.67,260.0,5.32,12.41,47.59359,-54.27349
2021-10-02 11:04:00+00:00,261.0,4.69,255.0,5.18,12.41,47.59359,-54.27349
2021-10-02 11:14:01+00:00,261.0,4.64,261.0,4.91,13.29,47.59359,-54.27349
2021-10-02 11:24:01+00:00,253.0,4.23,252.0,4.41,13.29,47.59359,-54.27349
2021-10-02 11:34:01+00:00,235.0,3.94,239.0,4.35,13.29,47.59359,-54.27349
2021-10-02 11:44:01+00:00,239.0,4.01,242.0,4.98,13.29,47.59359,-54.27349
2021-10-02 11:54:01+00:00,241.0,4.23,244.0,4.77,13.29,47.59359,-54.27349
2021-10-02 12:04:01+00:00,243.0,4.05,242.0,4.67,13.29,47.59359,-54.27349
2021-10-02 12:14:01+00:00,257.0,3.73,254.0,4.07,14.24,47.59359,-54.27349
2021-10-02 12:24:01+00:00,235.0,3.23,238.0,3.67,14.24,47.59359,-54.27349
2021-10-02 12:34:01+00:00,214.0,3.93,219.0,4.34,14.24,47.59359,-54.27349
2021-10-02 12:44:01+00:00,203.0,3.26,205.0,3.8,14.24,47.59359,-54.27349
2021-10-02 12:54:01+00:00,212.0,3.1,207.0,3.6,14.24,47.59359,-54.27349
2021-10-02 13:04:01+00:00,225.0,3.14,232.0,3.72,14.24,47.59359,-54.27349
2021-10-02 13:14:01+00:00,217.0,3.84,216.0,4.32,14.24,47.59359,-54.27349
2021-10-02 13:24:01+00:00,211.0,2.92,211.0,3.24,14.24,47.59359,-54.27349
2021-10-02 13:34:01+00:00,206.0,3.11,198.0,3.61,14.24,47.59359,-54.27349
2021-10-02 13:44:01+00:00,195.0,3.9,200.0,4.41,14.24,47.59359,-54.27349
2021-10-02 13:54:01+00:00,203.0,5.32,209.0,5.73,14.24,47.59359,-54.27349
2021-10-02 14:04:01+00:00,204.0,6.59,208.0,7.36,14.24,47.59359,-54.27349
2021-10-02 14:14:01+00:00,207.0,8.78,209.0,9.72,13.6,47.59359,-54.27349
2021-10-02 14:24:01+00:00,207.0,8.53,209.0,9.19,13.6,47.59359,-54.27349
2021-10-02 14:34:01+00:00,210.0,8.78,213.0,9.99,13.6,47.59359,-54.27349
2021-10-02 14:44:01+00:00,206.0,9.4,205.0,10.18,13.6,47.59359,-54.27349
2021-10-02 14:54:01+00:00,205.0,9.41,204.0,10.46,13.6,47.59359,-54.27349
2021-10-02 15:04:01+00:00,204.0,9.47,202.0,10.18,13.6,47.59359,-54.27349
2021-10-02 15:14:01+00:00,208.0,9.37,208.0,10.25,13.68,47.59359,-54.27349
2021-10-02 15:24:01+00:00,208.0,9.12,205.0,10.72,13.68,47.59359,-54.27349
2021-10-02 15:34:01+00:00,213.0,9.33,214.0,10.53,13.68,47.59359,-54.27349
2021-10-02 15:44:01+00:00,211.0,8.48,212.0,9.57,13.68,47.59359,-54.27349
2021-10-02 15:54:01+00:00,214.0,7.95,210.0,9.41,13.68,47.59359,-54.27349
2021-10-02 16:04:01+00:00,219.0,9.4,222.0,10.93,13.68,47.59359,-54.27349
2021-10-02 16:14:01+00:00,215.0,8.02,214.0,8.95,13.92,47.59359,-54.27349
2021-10-02 16:24:01+00:00,214.0,7.67,213.0,8.47,13.92,47.59359,-54.27349
2021-10-02 16:34:01+00:00,208.0,8.01,211.0,8.75,13.92,47.59359,-54.27349
2021-10-02 16:44:01+00:00,211.0,8.34,211.0,9.37,13.92,47.59359,-54.27349
2021-10-02 16:54:01+00:00,212.0,8.28,210.0,9.15,13.92,47.59359,-54.27349
2021-10-02 17:04:01+00:00,208.0,8.48,207.0,9.28,13.92,47.59359,-54.27349
2021-10-02 17:14:01+00:00,209.0,8.42,211.0,9.01,14.32,47.59359,-54.27349
2021-10-02 17:24:01+00:00,209.0,7.76,206.0,8.96,14.32,47.59359,-54.27349
2021-10-02 17:34:01+00:00,205.0,6.93,207.0,7.69,14.32,47.59359,-54.27349
2021-10-02 17:44:01+00:00,206.0,8.17,208.0,8.73,14.32,47.59359,-54.27349
2021-10-02 17:54:01+00:00,210.0,8.04,207.0,8.48,14.32,47.59359,-54.27349
2021-10-02 18:04:01+00:00,208.0,8.4,208.0,9.25,14.32,47.59359,-54.27349
2021-10-02 18:14:01+00:00,205.0,8.79,207.0,9.36,14.08,47.59359,-54.27349
2021-10-02 18:24:01+00:00,206.0,7.84,211.0,8.64,14.08,47.59359,-54.27349
2021-10-02 18:34:01+00:00,208.0,7.11,204.0,8.25,14.08,47.59359,-54.27349
2021-10-02 18:44:01+00:00,210.0,7.13,210.0,8.37,14.08,47.59359,-54.27349
2021-10-02 18:54:01+00:00,211.0,7.61,211.0,8.43,14.08,47.59359,-54.27349
2021-10-02 19:04:01+00:00,207.0,6.49,211.0,7.35,14.08,47.59359,-54.27349
2021-10-02 19:14:01+00:00,212.0,8.99,214.0,10.34,13.92,47.59359,-54.27349
2021-10-02 19:24:01+00:00,214.0,8.15,216.0,9.27,13.92,47.59359,-54.27349
2021-10-02 19:34:01+00:00,211.0,7.85,212.0,8.82,13.92,47.59359,-54.27349
2021-10-02 19:44:01+00:00,214.0,8.07,210.0,8.77,13.92,47.59359,-54.27349
2021-10-02 19:54:01+00:00,213.0,7.15,219.0,8.18,13.92,47.59359,-54.27349
2021-10-02 20:04:01+00:00,218.0,8.16,220.0,8.88,13.92,47.59359,-54.27349
2021-10-02 20:14:01+00:00,217.0,8.16,217.0,8.95,13.84,47.59359,-54.27349
2021-10-02 20:24:01+00:00,219.0,6.94,221.0,7.69,13.84,47.59359,-54.27349
2021-10-02 20:34:01+00:00,216.0,6.48,220.0,7.74,13.84,47.59359,-54.27349
2021-10-02 20:44:01+00:00,223.0,5.33,229.0,6.64,13.84,47.59359,-54.27349
2021-10-02 20:54:01+00:00,225.0,5.75,225.0,6.78,13.84,47.59359,-54.27349
2021-10-02 21:04:01+00:00,229.0,5.41,228.0,6.91,13.84,47.59359,-54.27349
2021-10-02 21:14:01+00:00,229.0,5.27,231.0,6.36,13.21,47.59359,-54.27349
2021-10-02 21:24:01+00:00,231.0,5.29,232.0,6.19,13.21,47.59359,-54.27349
2021-10-02 21:34:01+00:00,230.0,5.49,221.0,6.45,13.21,47.59359,-54.27349
2021-10-02 21:44:01+00:00,231.0,6.86,231.0,8.09,13.21,47.59359,-54.27349
2021-10-02 21:54:01+00:00,225.0,5.88,228.0,7.06,13.21,47.59359,-54.27349
2021-10-02 22:04:01+00:00,227.0,5.82,228.0,6.82,13.21,47.59359,-54.27349
2021-10-02 22:14:01+00:00,232.0,5.36,238.0,6.53,12.73,47.59359,-54.27349
2021-10-02 22:24:01+00:00,237.0,4.71,240.0,5.52,12.73,47.59359,-54.27349
2021-10-02 22:34:01+00:00,235.0,4.92,241.0,6.24,12.73,47.59359,-54.27349
2021-10-02 22:44:01+00:00,226.0,4.69,221.0,5.54,12.73,47.59359,-54.27349
2021-10-02 22:54:01+00:00,226.0,3.86,228.0,4.67,12.73,47.59359,-54.27349
2021-10-02 23:04:01+00:00,234.0,4.57,235.0,5.07,12.73,47.59359,-54.27349
2021-10-02 23:14:00+00:00,233.0,4.55,235.0,5.2,12.65,47.59359,-54.27349
2021-10-02 23:24:00+00:00,245.0,4.05,245.0,4.46,12.65,47.59359,-54.27349
2021-10-02 23:34:00+00:00,232.0,3.64,233.0,4.09,12.65,47.59359,-54.27349
2021-10-02 23:44:00+00:00,235.0,3.13,232.0,3.47,12.65,47.59359,-54.27349
2021-10-02 23:54:00+00:00,240.0,3.65,244.0,4.33,12.65,47.59359,-54.27349
